Time,TemperatureF,DewpointF,PressureIn,WindDirection,WindDirectionDegrees,WindSpeedMPH,WindSpeedGustMPH,Humidity,HourlyPrecipIn,Conditions,Clouds,dailyrainin,SoftwareType,DateUTC
2013-01-30 00:00:00,33.4,37.2,30.15,SSW,194,0.0,0.0,95,0.00,,,0.00,meteohub,2013-01-30 05:00:00,
2013-01-30 00:02:00,33.4,37.2,30.15,SSW,194,0.0,0.0,95,0.00,,,0.00,meteohub,2013-01-30 05:02:00,
2013-01-30 00:07:00,33.4,37.0,30.15,SSW,194,0.0,0.0,95,0.00,,,0.00,meteohub,2013-01-30 05:07:00,
2013-01-30 00:12:00,33.4,37.0,30.14,SSW,194,0.0,0.0,95,0.00,,,0.00,meteohub,2013-01-30 05:12:00,
2013-01-30 00:15:00,33.4,37.0,30.14,SSW,194,0.0,0.0,95,0.00,,,0.00,meteohub,2013-01-30 05:15:00,
2013-01-30 00:20:00,33.4,37.0,30.14,SSW,194,0.0,0.0,95,0.00,,,0.00,meteohub,2013-01-30 05:20:00,
2013-01-30 00:25:00,33.4,37.0,30.14,SSW,194,0.0,0.0,95,0.00,,,0.00,meteohub,2013-01-30 05:25:00,
2013-01-30 00:30:00,33.4,37.0,30.13,SSW,194,0.0,0.0,95,0.00,,,0.00,meteohub,2013-01-30 05:30:00,
2013-01-30 00:35:00,33.4,37.0,30.13,SSW,194,0.0,0.0,95,0.00,,,0.00,meteohub,2013-01-30 05:35:00,
2013-01-30 00:40:00,33.4,37.0,30.13,SSW,194,0.0,0.0,95,0.00,,,0.00,meteohub,2013-01-30 05:40:00,
2013-01-30 00:45:00,33.4,37.0,30.13,SSW,194,0.0,0.0,95,0.00,,,0.00,meteohub,2013-01-30 05:45:00,
2013-01-30 00:50:00,33.4,36.9,30.13,SSW,194,0.0,0.0,95,0.00,,,0.00,meteohub,2013-01-30 05:50:00,
2013-01-30 00:55:00,33.4,36.9,30.13,SSW,194,0.0,0.0,95,0.00,,,0.00,meteohub,2013-01-30 05:55:00,
2013-01-30 01:00:00,33.4,36.7,30.14,SSW,194,0.0,0.0,95,0.00,,,0.00,meteohub,2013-01-30 06:00:00,
2013-01-30 01:05:00,33.4,36.7,30.14,SSW,194,0.0,1.0,95,0.00,,,0.00,meteohub,2013-01-30 06:05:00,
2013-01-30 01:10:00,33.4,36.7,30.14,SSW,194,0.0,1.0,95,0.00,,,0.00,meteohub,2013-01-30 06:10:00,
2013-01-30 01:15:00,33.3,36.5,30.13,SSW,194,0.0,1.0,95,0.00,,,0.00,meteohub,2013-01-30 06:15:00,
2013-01-30 01:20:00,33.3,36.7,30.12,SSW,194,0.0,1.0,95,0.00,,,0.00,meteohub,2013-01-30 06:20:00,
2013-01-30 01:25:00,33.3,36.7,30.13,SSW,194,0.0,1.0,96,0.00,,,0.00,meteohub,2013-01-30 06:25:00,
2013-01-30 01:30:00,33.3,36.7,30.13,SSW,194,0.0,1.0,96,0.00,,,0.00,meteohub,2013-01-30 06:30:00,
2013-01-30 01:35:00,33.4,36.5,30.12,SSW,194,0.0,0.0,96,0.00,,,0.00,meteohub,2013-01-30 06:35:00,
2013-01-30 01:40:00,33.4,36.5,30.12,SSW,194,0.0,0.0,96,0.00,,,0.00,meteohub,2013-01-30 06:40:00,
2013-01-30 01:45:00,33.4,36.3,30.12,SSW,194,0.0,0.0,96,0.00,,,0.00,meteohub,2013-01-30 06:45:00,
2013-01-30 01:50:00,33.4,36.3,30.12,SSW,194,0.0,1.0,96,0.00,,,0.00,meteohub,2013-01-30 06:50:00,
2013-01-30 01:55:00,33.4,36.3,30.11,SSW,194,0.0,1.0,96,0.00,,,0.00,meteohub,2013-01-30 06:55:00,
2013-01-30 02:00:00,33.4,36.1,30.11,SSW,194,0.0,1.0,96,0.00,,,0.00,meteohub,2013-01-30 07:00:00,
2013-01-30 02:05:00,33.4,36.1,30.12,SSW,194,0.0,1.0,96,0.00,,,0.00,meteohub,2013-01-30 07:05:00,
2013-01-30 02:10:00,33.4,36.3,30.11,SSW,194,0.0,0.0,96,0.00,,,0.00,meteohub,2013-01-30 07:10:00,
2013-01-30 02:15:00,33.4,36.3,30.10,SSW,194,0.0,1.0,96,0.00,,,0.00,meteohub,2013-01-30 07:15:00,
2013-01-30 02:20:00,33.4,36.1,30.10,SSW,194,0.0,1.0,96,0.00,,,0.00,meteohub,2013-01-30 07:20:00,
2013-01-30 02:25:00,33.4,36.1,30.09,SSW,194,0.0,1.0,96,0.00,,,0.00,meteohub,2013-01-30 07:25:00,
2013-01-30 02:31:00,33.6,36.1,30.09,SSW,194,0.0,0.0,96,0.00,,,0.00,meteohub,2013-01-30 07:31:00,
2013-01-30 02:36:00,33.6,36.0,30.08,SSW,194,0.0,0.0,96,0.00,,,0.00,meteohub,2013-01-30 07:36:00,
2013-01-30 02:41:00,33.6,36.0,30.08,SSW,194,0.0,0.0,96,0.00,,,0.00,meteohub,2013-01-30 07:41:00,
2013-01-30 02:46:00,33.6,36.0,30.08,SSW,194,0.0,0.0,96,0.00,,,0.00,meteohub,2013-01-30 07:46:00,
2013-01-30 02:51:00,33.6,36.0,30.08,SSW,194,0.0,0.0,96,0.00,,,0.00,meteohub,2013-01-30 07:51:00,
2013-01-30 02:56:00,33.6,36.0,30.08,SSW,194,0.0,0.0,96,0.00,,,0.00,meteohub,2013-01-30 07:56:00,
2013-01-30 03:01:00,33.6,36.0,30.07,SSW,194,0.0,0.0,96,0.00,,,0.00,meteohub,2013-01-30 08:01:00,
2013-01-30 03:06:00,33.6,36.0,30.07,SSW,194,0.0,0.0,96,0.00,,,0.00,meteohub,2013-01-30 08:06:00,
2013-01-30 03:11:00,33.6,36.0,30.06,SSW,194,0.0,0.0,96,0.00,,,0.00,meteohub,2013-01-30 08:11:00,
2013-01-30 03:16:00,33.6,36.0,30.06,SSW,194,0.0,0.0,96,0.00,,,0.00,meteohub,2013-01-30 08:16:00,
2013-01-30 03:21:00,33.6,36.0,30.06,SSW,194,0.0,0.0,96,0.00,,,0.00,meteohub,2013-01-30 08:21:00,
2013-01-30 03:26:00,33.6,35.8,30.06,SSW,194,0.0,0.0,96,0.00,,,0.00,meteohub,2013-01-30 08:26:00,
2013-01-30 03:31:00,33.6,35.8,30.05,SSW,194,0.0,0.0,96,0.00,,,0.00,meteohub,2013-01-30 08:31:00,
2013-01-30 03:36:00,33.6,36.0,30.05,SSW,194,0.0,1.0,96,0.00,,,0.00,meteohub,2013-01-30 08:36:00,
2013-01-30 03:41:00,33.6,36.0,30.05,SSW,194,0.0,1.0,96,0.00,,,0.00,meteohub,2013-01-30 08:41:00,
2013-01-30 03:46:00,33.6,36.0,30.04,SSW,194,0.0,1.0,96,0.00,,,0.00,meteohub,2013-01-30 08:46:00,
2013-01-30 03:51:00,33.6,35.8,30.04,SSW,194,0.0,1.0,96,0.00,,,0.00,meteohub,2013-01-30 08:51:00,
2013-01-30 03:56:00,33.6,35.8,30.05,SSW,194,0.0,0.0,96,0.00,,,0.00,meteohub,2013-01-30 08:56:00,
2013-01-30 04:01:00,33.6,35.8,30.04,SSW,194,0.0,0.0,96,0.00,,,0.00,meteohub,2013-01-30 09:01:00,
2013-01-30 04:06:00,33.6,35.6,30.04,SSW,194,0.0,0.0,96,0.00,,,0.00,meteohub,2013-01-30 09:06:00,
2013-01-30 04:11:00,33.6,35.6,30.04,SSW,194,0.0,0.0,96,0.00,,,0.00,meteohub,2013-01-30 09:11:00,
2013-01-30 04:16:00,33.4,35.6,30.04,SSW,194,0.0,0.0,96,0.00,,,0.00,meteohub,2013-01-30 09:16:00,
2013-01-30 04:21:00,33.4,35.8,30.04,SSW,194,0.0,0.0,96,0.00,,,0.00,meteohub,2013-01-30 09:21:00,
2013-01-30 04:26:00,33.4,35.8,30.03,SSW,194,0.0,0.0,96,0.00,,,0.00,meteohub,2013-01-30 09:26:00,
2013-01-30 04:31:00,33.4,35.8,30.04,SSW,194,0.0,0.0,96,0.00,,,0.00,meteohub,2013-01-30 09:31:00,
2013-01-30 04:36:00,33.4,35.6,30.03,SSW,194,0.0,0.0,96,0.00,,,0.00,meteohub,2013-01-30 09:36:00,
2013-01-30 04:41:00,33.4,35.6,30.02,SSW,194,0.0,0.0,96,0.00,,,0.00,meteohub,2013-01-30 09:41:00,
2013-01-30 04:46:00,33.6,35.6,30.01,SSW,194,0.0,1.0,96,0.00,,,0.00,meteohub,2013-01-30 09:46:00,
2013-01-30 04:51:00,33.6,35.6,30.01,SSW,194,0.0,1.0,96,0.00,,,0.00,meteohub,2013-01-30 09:51:00,
2013-01-30 04:56:00,33.6,35.6,30.01,NNW,331,0.0,1.0,96,0.00,,,0.00,meteohub,2013-01-30 09:56:00,
2013-01-30 05:01:00,34.0,35.6,30.00,NNW,330,0.0,2.0,96,0.00,,,0.00,meteohub,2013-01-30 10:01:00,
2013-01-30 05:06:00,34.2,35.8,30.00,NNW,331,0.0,2.0,96,0.00,,,0.00,meteohub,2013-01-30 10:06:00,
2013-01-30 05:11:00,34.2,35.8,30.00,NNW,330,1.0,2.0,96,0.00,,,0.00,meteohub,2013-01-30 10:11:00,
2013-01-30 05:16:00,34.3,35.8,30.00,NNW,330,0.0,2.0,96,0.00,,,0.00,meteohub,2013-01-30 10:16:00,
2013-01-30 05:21:00,34.3,35.6,30.00,NNW,330,0.0,1.0,96,0.00,,,0.00,meteohub,2013-01-30 10:21:00,
2013-01-30 05:26:00,34.3,35.8,30.00,NNW,330,0.0,2.0,96,0.00,,,0.00,meteohub,2013-01-30 10:26:00,
2013-01-30 05:31:00,34.3,35.8,30.00,NNW,330,0.0,2.0,96,0.00,,,0.00,meteohub,2013-01-30 10:31:00,
2013-01-30 05:36:00,34.2,35.8,30.00,NNW,331,0.0,1.0,96,0.00,,,0.00,meteohub,2013-01-30 10:36:00,
2013-01-30 05:41:00,34.2,35.8,30.00,NNW,330,0.0,1.0,96,0.00,,,0.00,meteohub,2013-01-30 10:41:00,
2013-01-30 05:46:00,34.2,35.8,30.00,NNW,331,0.0,0.0,96,0.00,,,0.00,meteohub,2013-01-30 10:46:00,
2013-01-30 05:51:00,34.2,35.6,30.00,NNW,330,0.0,0.0,96,0.00,,,0.00,meteohub,2013-01-30 10:51:00,
2013-01-30 05:56:00,34.2,35.6,29.99,NNW,331,0.0,0.0,96,0.00,,,0.00,meteohub,2013-01-30 10:56:00,
2013-01-30 06:01:00,34.2,35.6,29.99,NNW,331,0.0,0.0,96,0.00,,,0.00,meteohub,2013-01-30 11:01:00,
2013-01-30 06:07:00,34.0,35.6,29.99,NNW,330,0.0,0.0,96,0.00,,,0.00,meteohub,2013-01-30 11:07:00,
2013-01-30 06:12:00,34.0,35.6,29.99,NNW,331,0.0,0.0,96,0.00,,,0.00,meteohub,2013-01-30 11:12:00,
2013-01-30 06:17:00,34.0,35.6,29.98,NNW,331,0.0,0.0,96,0.00,,,0.00,meteohub,2013-01-30 11:17:00,
2013-01-30 06:22:00,34.0,35.6,29.98,NNW,331,0.0,0.0,96,0.00,,,0.00,meteohub,2013-01-30 11:22:00,
2013-01-30 06:27:00,34.0,35.6,29.98,NNW,330,0.0,0.0,96,0.00,,,0.00,meteohub,2013-01-30 11:27:00,
2013-01-30 06:32:00,34.2,35.6,29.98,NNW,330,0.0,0.0,96,0.00,,,0.00,meteohub,2013-01-30 11:32:00,
2013-01-30 06:37:00,34.2,35.6,29.98,NNW,331,0.0,0.0,96,0.00,,,0.00,meteohub,2013-01-30 11:37:00,
2013-01-30 06:42:00,34.2,35.6,29.97,NNW,330,0.0,0.0,96,0.00,,,0.00,meteohub,2013-01-30 11:42:00,
2013-01-30 06:47:00,34.2,35.6,29.96,NNW,330,0.0,0.0,96,0.00,,,0.00,meteohub,2013-01-30 11:47:00,
2013-01-30 06:52:00,34.2,35.6,29.96,NNW,331,0.0,0.0,96,0.00,,,0.00,meteohub,2013-01-30 11:52:00,
2013-01-30 06:57:00,34.2,35.6,29.95,NNW,331,0.0,1.0,96,0.00,,,0.00,meteohub,2013-01-30 11:57:00,
2013-01-30 07:02:00,34.2,35.6,29.95,NNW,331,0.0,1.0,96,0.00,,,0.00,meteohub,2013-01-30 12:02:00,
2013-01-30 07:07:00,34.2,35.6,29.95,NNW,330,0.0,1.0,96,0.00,,,0.00,meteohub,2013-01-30 12:07:00,
2013-01-30 07:12:00,34.2,35.6,29.95,NNW,331,0.0,0.0,96,0.00,,,0.00,meteohub,2013-01-30 12:12:00,
2013-01-30 07:17:00,34.2,35.6,29.94,NNW,331,0.0,0.0,96,0.00,,,0.00,meteohub,2013-01-30 12:17:00,
2013-01-30 07:22:00,34.2,35.6,29.94,NNW,331,0.0,0.0,96,0.00,,,0.00,meteohub,2013-01-30 12:22:00,
2013-01-30 07:27:00,34.2,36.0,29.94,NNW,330,0.0,0.0,96,0.00,,,0.00,meteohub,2013-01-30 12:27:00,
2013-01-30 07:32:00,34.2,36.1,29.94,NNW,331,0.0,0.0,96,0.00,,,0.00,meteohub,2013-01-30 12:32:00,
2013-01-30 07:37:00,34.2,36.3,29.94,NNW,331,0.0,0.0,96,0.00,,,0.00,meteohub,2013-01-30 12:37:00,
2013-01-30 07:42:00,34.2,36.5,29.93,NNW,330,0.0,0.0,96,0.00,,,0.00,meteohub,2013-01-30 12:42:00,
2013-01-30 07:47:00,34.2,36.5,29.93,NNW,331,0.0,0.0,96,0.00,,,0.00,meteohub,2013-01-30 12:47:00,
2013-01-30 07:52:00,34.2,36.5,29.92,NNW,331,0.0,0.0,96,0.00,,,0.00,meteohub,2013-01-30 12:52:00,
2013-01-30 07:57:00,34.2,36.5,29.92,NNW,331,0.0,0.0,96,0.00,,,0.00,meteohub,2013-01-30 12:57:00,
2013-01-30 08:02:00,34.2,37.8,29.92,NNW,331,0.0,0.0,96,0.00,,,0.00,meteohub,2013-01-30 13:02:00,
2013-01-30 08:07:00,34.2,37.9,29.92,NNW,330,0.0,0.0,96,0.00,,,0.00,meteohub,2013-01-30 13:07:00,
2013-01-30 08:12:00,34.2,37.0,29.92,NNW,331,0.0,0.0,96,0.00,,,0.00,meteohub,2013-01-30 13:12:00,
2013-01-30 08:17:00,34.2,37.0,29.92,NNW,330,0.0,1.0,96,0.00,,,0.00,meteohub,2013-01-30 13:17:00,
2013-01-30 08:22:00,34.2,37.2,29.92,NNW,330,0.0,1.0,97,0.00,,,0.00,meteohub,2013-01-30 13:22:00,
2013-01-30 08:27:00,34.3,37.2,29.91,NNW,331,0.0,1.0,97,0.00,,,0.00,meteohub,2013-01-30 13:27:00,
2013-01-30 08:32:00,34.3,37.2,29.91,NNW,331,0.0,0.0,97,0.00,,,0.00,meteohub,2013-01-30 13:32:00,
2013-01-30 08:37:00,34.3,37.0,29.91,NNW,331,0.0,0.0,97,0.00,,,0.00,meteohub,2013-01-30 13:37:00,
2013-01-30 08:42:00,34.3,37.2,29.91,NNW,330,0.0,0.0,97,0.00,,,0.00,meteohub,2013-01-30 13:42:00,
2013-01-30 08:47:00,34.3,37.2,29.90,NNW,331,0.0,0.0,97,0.00,,,0.00,meteohub,2013-01-30 13:47:00,
2013-01-30 08:52:00,34.3,37.4,29.90,NNW,331,0.0,0.0,97,0.00,,,0.00,meteohub,2013-01-30 13:52:00,
2013-01-30 08:57:00,34.3,37.6,29.90,NNW,330,0.0,0.0,97,0.00,,,0.00,meteohub,2013-01-30 13:57:00,
2013-01-30 09:02:00,34.3,37.6,29.90,NNW,331,0.0,0.0,97,0.00,,,0.00,meteohub,2013-01-30 14:02:00,
2013-01-30 09:07:00,34.5,37.6,29.89,NNW,331,0.0,0.0,97,0.00,,,0.00,meteohub,2013-01-30 14:07:00,
2013-01-30 09:12:00,34.5,37.6,29.89,NNW,331,0.0,0.0,96,0.00,,,0.00,meteohub,2013-01-30 14:12:00,
2013-01-30 09:17:00,34.7,37.6,29.88,NNW,330,0.0,0.0,96,0.00,,,0.00,meteohub,2013-01-30 14:17:00,
2013-01-30 09:22:00,34.9,37.6,29.88,NNW,330,0.0,0.0,96,0.00,,,0.00,meteohub,2013-01-30 14:22:00,
2013-01-30 09:27:00,35.1,37.6,29.87,NNW,331,0.0,0.0,97,0.00,,,0.00,meteohub,2013-01-30 14:27:00,
2013-01-30 09:32:00,35.1,38.7,29.87,NNW,330,0.0,0.0,97,0.00,,,0.00,meteohub,2013-01-30 14:32:00,
2013-01-30 09:37:00,35.2,38.7,29.86,NNW,330,0.0,0.0,97,0.00,,,0.00,meteohub,2013-01-30 14:37:00,
2013-01-30 09:42:00,35.2,37.8,29.86,NNW,331,0.0,0.0,97,0.00,,,0.00,meteohub,2013-01-30 14:42:00,
2013-01-30 09:47:00,35.4,37.9,29.86,NNW,331,0.0,2.0,97,0.00,,,0.00,meteohub,2013-01-30 14:47:00,
2013-01-30 09:52:00,35.8,37.9,29.86,NNW,330,0.0,2.0,97,0.00,,,0.00,meteohub,2013-01-30 14:52:00,
2013-01-30 09:57:00,35.8,37.9,29.86,NNW,331,0.0,2.0,97,0.00,,,0.00,meteohub,2013-01-30 14:57:00,
2013-01-30 10:02:00,36.0,37.8,29.86,NNW,330,0.0,1.0,97,0.00,,,0.00,meteohub,2013-01-30 15:02:00,
2013-01-30 10:07:00,36.0,37.8,29.85,NNW,330,0.0,0.0,97,0.00,,,0.00,meteohub,2013-01-30 15:07:00,
2013-01-30 10:12:00,36.1,37.8,29.85,NNW,331,0.0,0.0,97,0.00,,,0.00,meteohub,2013-01-30 15:12:00,
2013-01-30 10:17:00,36.3,37.9,29.84,NNW,331,0.0,1.0,97,0.00,,,0.00,meteohub,2013-01-30 15:17:00,
2013-01-30 10:22:00,36.3,37.9,29.84,NNW,331,0.0,1.0,97,0.00,,,0.00,meteohub,2013-01-30 15:22:00,
2013-01-30 10:27:00,36.5,37.9,29.84,NNW,331,0.0,1.0,97,0.00,,,0.00,meteohub,2013-01-30 15:27:00,
2013-01-30 10:32:00,36.7,37.9,29.84,NNW,330,0.0,1.0,97,0.00,,,0.00,meteohub,2013-01-30 15:32:00,
2013-01-30 10:37:00,36.9,37.9,29.83,NNW,330,0.0,1.0,97,0.00,,,0.00,meteohub,2013-01-30 15:37:00,
2013-01-30 10:42:00,36.9,37.9,29.83,NNW,331,0.0,0.0,97,0.00,,,0.00,meteohub,2013-01-30 15:42:00,
2013-01-30 10:47:00,37.0,37.9,29.81,NNW,331,0.0,0.0,97,0.00,,,0.00,meteohub,2013-01-30 15:47:00,
2013-01-30 10:52:00,37.2,39.0,29.81,NNW,330,0.0,0.0,97,0.00,,,0.00,meteohub,2013-01-30 15:52:00,
2013-01-30 10:57:00,37.8,39.2,29.80,NNW,331,0.0,1.0,97,0.00,,,0.00,meteohub,2013-01-30 15:57:00,
2013-01-30 11:02:00,39.9,39.2,29.79,NW,323,0.0,5.0,97,0.00,,,0.00,meteohub,2013-01-30 16:02:00,
2013-01-30 11:07:00,41.9,38.1,29.80,NNW,327,2.0,5.0,97,0.00,,,0.00,meteohub,2013-01-30 16:07:00,
2013-01-30 11:12:00,43.3,38.1,29.79,NNW,327,0.0,5.0,98,0.00,,,0.00,meteohub,2013-01-30 16:12:00,
2013-01-30 11:17:00,44.8,38.1,29.79,NNW,327,0.0,4.0,98,0.00,,,0.00,meteohub,2013-01-30 16:17:00,
2013-01-30 11:22:00,46.2,37.9,29.78,NNW,327,0.0,4.0,98,0.00,,,0.00,meteohub,2013-01-30 16:22:00,
2013-01-30 11:27:00,47.5,37.9,29.78,NNW,327,0.0,4.0,98,0.00,,,0.00,meteohub,2013-01-30 16:27:00,
2013-01-30 11:32:00,48.0,37.9,29.78,South,186,1.0,4.0,98,0.00,,,0.00,meteohub,2013-01-30 16:32:00,
2013-01-30 11:37:00,48.9,37.9,29.77,SSW,197,0.0,4.0,98,0.00,,,0.00,meteohub,2013-01-30 16:37:00,
2013-01-30 11:42:00,49.3,39.0,29.77,SE,128,1.0,1.0,98,0.00,,,0.00,meteohub,2013-01-30 16:42:00,
2013-01-30 11:47:00,49.6,39.0,29.76,SE,128,0.0,1.0,98,0.00,,,0.00,meteohub,2013-01-30 16:47:00,
2013-01-30 11:52:00,50.2,39.2,29.75,ENE,66,0.0,1.0,98,0.00,,,0.00,meteohub,2013-01-30 16:52:00,
2013-01-30 11:57:00,50.5,38.1,29.75,ESE,110,0.0,3.0,98,0.00,,,0.00,meteohub,2013-01-30 16:57:00,
2013-01-30 12:02:00,50.7,38.1,29.75,ESE,110,1.0,3.0,98,0.00,,,0.00,meteohub,2013-01-30 17:02:00,
2013-01-30 12:07:00,50.7,38.1,29.74,NNW,333,0.0,3.0,98,0.00,,,0.00,meteohub,2013-01-30 17:07:00,
2013-01-30 12:12:00,51.3,38.1,29.74,ENE,71,0.0,6.0,98,0.00,,,0.00,meteohub,2013-01-30 17:12:00,
2013-01-30 12:17:00,51.4,39.2,29.73,ESE,110,0.0,6.0,98,0.00,,,0.00,meteohub,2013-01-30 17:17:00,
2013-01-30 12:22:00,51.6,39.2,29.73,ESE,107,1.0,6.0,98,0.00,,,0.00,meteohub,2013-01-30 17:22:00,
2013-01-30 12:27:00,52.0,39.2,29.72,East,91,0.0,2.0,98,0.00,,,0.00,meteohub,2013-01-30 17:27:00,
2013-01-30 12:32:00,52.2,39.2,29.72,ENE,78,1.0,2.0,98,0.00,,,0.00,meteohub,2013-01-30 17:32:00,
2013-01-30 12:37:00,52.2,39.2,29.72,NNE,26,2.0,6.0,98,0.00,,,0.00,meteohub,2013-01-30 17:37:00,
2013-01-30 12:42:00,52.3,39.2,29.71,NE,53,0.0,6.0,98,0.00,,,0.00,meteohub,2013-01-30 17:42:00,
2013-01-30 12:47:00,52.5,39.0,29.71,SE,141,0.0,6.0,98,0.00,,,0.00,meteohub,2013-01-30 17:47:00,
2013-01-30 12:52:00,52.5,39.0,29.70,East,95,2.0,4.0,98,0.00,,,0.00,meteohub,2013-01-30 17:52:00,
2013-01-30 12:57:00,52.9,39.0,29.69,ESE,115,0.0,4.0,98,0.00,,,0.00,meteohub,2013-01-30 17:57:00,
2013-01-30 13:02:00,52.9,39.0,29.69,North,9,0.0,4.0,98,0.00,,,0.00,meteohub,2013-01-30 18:02:00,
2013-01-30 13:07:00,52.9,39.0,29.69,ENE,61,0.0,4.0,98,0.00,,,0.00,meteohub,2013-01-30 18:07:00,
2013-01-30 13:12:00,52.9,39.2,29.69,NE,53,0.0,5.0,98,0.00,,,0.00,meteohub,2013-01-30 18:12:00,
2013-01-30 13:17:00,52.9,39.2,29.69,ESE,103,1.0,5.0,98,0.00,,,0.00,meteohub,2013-01-30 18:17:00,
2013-01-30 13:22:00,53.1,39.2,29.68,ESE,113,1.0,5.0,98,0.00,,,0.00,meteohub,2013-01-30 18:22:00,
2013-01-30 13:27:00,53.1,39.2,29.68,NW,306,1.0,5.0,98,0.00,,,0.00,meteohub,2013-01-30 18:27:00,
2013-01-30 13:32:00,53.1,39.2,29.68,ESE,113,0.0,7.0,98,0.00,,,0.00,meteohub,2013-01-30 18:32:00,
2013-01-30 13:37:00,53.2,39.2,29.67,ENE,68,0.0,7.0,98,0.00,,,0.00,meteohub,2013-01-30 18:37:00,
2013-01-30 13:42:00,53.6,39.2,29.66,ENE,73,0.0,7.0,98,0.00,,,0.00,meteohub,2013-01-30 18:42:00,
2013-01-30 13:47:00,53.8,39.2,29.66,East,87,4.0,5.0,98,0.00,,,0.00,meteohub,2013-01-30 18:47:00,
2013-01-30 13:52:00,54.0,39.2,29.66,WNW,299,2.0,5.0,98,0.00,,,0.00,meteohub,2013-01-30 18:52:00,
2013-01-30 13:57:00,54.1,39.2,29.65,West,262,1.0,5.0,98,0.00,,,0.00,meteohub,2013-01-30 18:57:00,
2013-01-30 14:02:00,54.3,39.4,29.65,ESE,115,2.0,5.0,98,0.00,,,0.00,meteohub,2013-01-30 19:02:00,
2013-01-30 14:07:00,54.5,39.4,29.65,SSE,156,1.0,8.0,98,0.00,,,0.00,meteohub,2013-01-30 19:07:00,
2013-01-30 14:12:00,54.9,39.4,29.65,NNE,26,3.0,8.0,98,0.00,,,0.00,meteohub,2013-01-30 19:12:00,
2013-01-30 14:17:00,54.9,39.2,29.65,SE,124,1.0,8.0,98,0.00,,,0.00,meteohub,2013-01-30 19:17:00,
2013-01-30 14:22:00,55.0,39.2,29.65,ENE,65,1.0,7.0,98,0.00,,,0.00,meteohub,2013-01-30 19:22:00,
2013-01-30 14:27:00,55.0,39.2,29.65,NE,34,1.0,8.0,98,0.00,,,0.00,meteohub,2013-01-30 19:27:00,
2013-01-30 14:32:00,55.2,39.2,29.65,SSE,149,1.0,8.0,98,0.00,,,0.00,meteohub,2013-01-30 19:32:00,
2013-01-30 14:37:00,55.2,39.2,29.65,NW,322,0.0,8.0,98,0.00,,,0.00,meteohub,2013-01-30 19:37:00,
2013-01-30 14:42:00,55.2,39.2,29.65,ESE,107,1.0,6.0,97,0.00,,,0.00,meteohub,2013-01-30 19:42:00,
2013-01-30 14:47:00,55.4,39.2,29.65,WSW,257,1.0,6.0,97,0.00,,,0.00,meteohub,2013-01-30 19:47:00,
2013-01-30 14:52:00,55.6,39.4,29.65,East,86,2.0,9.0,97,0.00,,,0.00,meteohub,2013-01-30 19:52:00,
2013-01-30 14:57:00,55.4,39.4,29.65,NNW,328,1.0,9.0,97,0.00,,,0.00,meteohub,2013-01-30 19:57:00,
2013-01-30 15:02:00,55.2,39.2,29.64,ESE,104,0.0,8.0,97,0.00,,,0.00,meteohub,2013-01-30 20:02:00,
2013-01-30 15:07:00,55.6,40.1,29.64,ESE,103,1.0,6.0,96,0.00,,,0.00,meteohub,2013-01-30 20:07:00,
2013-01-30 15:13:00,55.4,40.1,29.65,WNW,298,2.0,10.0,96,0.00,,,0.00,meteohub,2013-01-30 20:13:00,
2013-01-30 15:17:00,55.4,40.1,29.65,WNW,283,0.0,10.0,96,0.00,,,0.00,meteohub,2013-01-30 20:17:00,
2013-01-30 15:23:00,55.2,40.1,29.64,NNE,26,0.0,10.0,96,0.00,,,0.00,meteohub,2013-01-30 20:23:00,
2013-01-30 15:28:00,55.6,40.1,29.64,WSW,242,2.0,5.0,96,0.00,,,0.00,meteohub,2013-01-30 20:28:00,
2013-01-30 15:33:00,55.6,40.1,29.64,NE,55,0.0,6.0,96,0.00,,,0.00,meteohub,2013-01-30 20:33:00,
2013-01-30 15:38:00,55.6,40.1,29.63,ENE,67,2.0,6.0,96,0.00,,,0.00,meteohub,2013-01-30 20:38:00,
2013-01-30 15:43:00,55.6,40.1,29.62,NNW,348,4.0,7.0,96,0.00,,,0.00,meteohub,2013-01-30 20:43:00,
2013-01-30 15:48:00,55.8,40.3,29.62,NW,313,4.0,7.0,95,0.00,,,0.00,meteohub,2013-01-30 20:48:00,
2013-01-30 15:53:00,55.9,40.3,29.62,NNE,29,0.0,5.0,96,0.00,,,0.00,meteohub,2013-01-30 20:53:00,
2013-01-30 15:58:00,55.9,40.3,29.62,NNW,346,9.0,9.0,95,0.00,,,0.00,meteohub,2013-01-30 20:58:00,
2013-01-30 16:03:00,56.1,40.3,29.62,South,182,1.0,9.0,95,0.00,,,0.00,meteohub,2013-01-30 21:03:00,
2013-01-30 16:08:00,56.1,40.3,29.62,SE,131,2.0,9.0,95,0.00,,,0.00,meteohub,2013-01-30 21:08:00,
2013-01-30 16:13:00,56.1,40.3,29.62,ESE,107,2.0,9.0,95,0.00,,,0.00,meteohub,2013-01-30 21:13:00,
2013-01-30 16:18:00,56.1,40.3,29.62,East,83,2.0,7.0,95,0.00,,,0.00,meteohub,2013-01-30 21:18:00,
2013-01-30 16:23:00,56.1,40.3,29.62,ENE,65,0.0,11.0,95,0.00,,,0.00,meteohub,2013-01-30 21:23:00,
2013-01-30 16:28:00,56.1,40.3,29.61,NNW,333,0.0,11.0,95,0.00,,,0.00,meteohub,2013-01-30 21:28:00,
2013-01-30 16:33:00,56.5,40.5,29.62,WSW,256,1.0,5.0,95,0.00,,,0.00,meteohub,2013-01-30 21:33:00,
2013-01-30 16:38:00,56.3,40.5,29.61,ESE,109,8.0,8.0,95,0.00,,,0.00,meteohub,2013-01-30 21:38:00,
2013-01-30 16:43:00,56.5,40.6,29.62,SE,139,4.0,6.0,95,0.00,,,0.00,meteohub,2013-01-30 21:43:00,
2013-01-30 16:48:00,56.5,40.6,29.62,East,82,2.0,8.0,94,0.00,,,0.00,meteohub,2013-01-30 21:48:00,
2013-01-30 16:53:00,56.7,40.8,29.62,WSW,241,6.0,8.0,94,0.00,,,0.00,meteohub,2013-01-30 21:53:00,
2013-01-30 16:58:00,56.7,40.8,29.62,ESE,107,1.0,12.0,94,0.00,,,0.00,meteohub,2013-01-30 21:58:00,
2013-01-30 17:03:00,56.8,41.0,29.62,NE,36,6.0,12.0,94,0.00,,,0.00,meteohub,2013-01-30 22:03:00,
2013-01-30 17:08:00,56.8,41.0,29.62,ENE,63,2.0,12.0,94,0.00,,,0.00,meteohub,2013-01-30 22:08:00,
2013-01-30 17:13:00,56.8,41.0,29.62,NW,323,0.0,10.0,94,0.00,,,0.00,meteohub,2013-01-30 22:13:00,
2013-01-30 17:18:00,56.7,42.1,29.61,ENE,63,1.0,10.0,94,0.00,,,0.00,meteohub,2013-01-30 22:18:00,
2013-01-30 17:23:00,56.7,42.1,29.61,NE,36,3.0,10.0,95,0.00,,,0.00,meteohub,2013-01-30 22:23:00,
2013-01-30 17:28:00,56.7,42.1,29.60,WNW,302,0.0,6.0,95,0.00,,,0.00,meteohub,2013-01-30 22:28:00,
2013-01-30 17:33:00,56.7,41.2,29.60,NNE,29,3.0,6.0,95,0.00,,,0.00,meteohub,2013-01-30 22:33:00,
2013-01-30 17:39:00,56.8,41.2,29.60,East,99,4.0,6.0,95,0.00,,,0.00,meteohub,2013-01-30 22:39:00,
2013-01-30 17:44:00,56.8,41.2,29.60,NNW,340,5.0,7.0,95,0.00,,,0.00,meteohub,2013-01-30 22:44:00,
2013-01-30 17:49:00,56.8,41.2,29.59,East,87,1.0,7.0,94,0.00,,,0.00,meteohub,2013-01-30 22:49:00,
2013-01-30 17:54:00,56.8,41.4,29.59,East,89,1.0,7.0,94,0.00,,,0.00,meteohub,2013-01-30 22:54:00,
2013-01-30 17:59:00,56.7,41.4,29.59,NE,46,0.0,7.0,94,0.00,,,0.00,meteohub,2013-01-30 22:59:00,
2013-01-30 18:04:00,56.8,41.4,29.60,North,0,0.0,6.0,94,0.00,,,0.00,meteohub,2013-01-30 23:04:00,
2013-01-30 18:09:00,56.8,41.4,29.59,East,94,2.0,7.0,94,0.00,,,0.00,meteohub,2013-01-30 23:09:00,
2013-01-30 18:14:00,56.8,41.4,29.59,NNE,30,4.0,7.0,94,0.00,,,0.00,meteohub,2013-01-30 23:14:00,
2013-01-30 18:19:00,57.0,41.4,29.59,East,80,2.0,10.0,94,0.00,,,0.00,meteohub,2013-01-30 23:19:00,
2013-01-30 18:24:00,57.0,41.4,29.59,SE,133,3.0,10.0,94,0.00,,,0.00,meteohub,2013-01-30 23:24:00,
2013-01-30 18:29:00,57.2,41.4,29.58,ENE,66,1.0,10.0,94,0.00,,,0.00,meteohub,2013-01-30 23:29:00,
2013-01-30 18:34:00,57.0,41.5,29.58,SE,134,1.0,8.0,93,0.00,,,0.00,meteohub,2013-01-30 23:34:00,
2013-01-30 18:39:00,57.4,41.5,29.57,ENE,65,2.0,8.0,94,0.00,,,0.00,meteohub,2013-01-30 23:39:00,
2013-01-30 18:44:00,57.4,41.5,29.57,East,83,1.0,6.0,94,0.00,,,0.00,meteohub,2013-01-30 23:44:00,
2013-01-30 18:49:00,57.4,41.5,29.57,NNE,30,1.0,7.0,93,0.00,,,0.00,meteohub,2013-01-30 23:49:00,
2013-01-30 18:54:00,57.6,41.7,29.57,ENE,71,4.0,7.0,93,0.00,,,0.00,meteohub,2013-01-30 23:54:00,
2013-01-30 18:59:00,57.7,41.7,29.57,ENE,75,2.0,9.0,93,0.00,,,0.00,meteohub,2013-01-30 23:59:00,
2013-01-30 19:04:00,57.9,41.7,29.57,East,83,0.0,10.0,93,0.00,,,0.00,meteohub,2013-01-31 00:04:00,
2013-01-30 19:09:00,57.7,41.7,29.57,NNW,340,1.0,12.0,93,0.00,,,0.00,meteohub,2013-01-31 00:09:00,
2013-01-30 19:14:00,57.7,41.7,29.57,East,93,6.0,12.0,93,0.00,,,0.00,meteohub,2013-01-31 00:14:00,
2013-01-30 19:19:00,57.9,41.9,29.57,NE,46,1.0,12.0,93,0.00,,,0.00,meteohub,2013-01-31 00:19:00,
2013-01-30 19:24:00,57.9,41.9,29.57,ENE,70,0.0,8.0,92,0.00,,,0.00,meteohub,2013-01-31 00:24:00,
2013-01-30 19:29:00,57.9,41.9,29.57,East,80,1.0,8.0,92,0.00,,,0.00,meteohub,2013-01-31 00:29:00,
2013-01-30 19:34:00,57.9,41.9,29.57,NNW,338,1.0,8.0,93,0.00,,,0.00,meteohub,2013-01-31 00:34:00,
2013-01-30 19:39:00,57.9,41.7,29.56,SE,129,5.0,10.0,93,0.00,,,0.00,meteohub,2013-01-31 00:39:00,
2013-01-30 19:44:00,57.7,41.7,29.57,East,91,4.0,10.0,93,0.00,,,0.00,meteohub,2013-01-31 00:44:00,
2013-01-30 19:49:00,57.7,41.7,29.56,ENE,63,1.0,10.0,93,0.00,,,0.00,meteohub,2013-01-31 00:49:00,
2013-01-30 19:54:00,57.6,41.7,29.57,SSE,165,4.0,7.0,94,0.00,,,0.00,meteohub,2013-01-31 00:54:00,
2013-01-30 19:59:00,57.6,41.7,29.56,SE,137,1.0,7.0,94,0.00,,,0.00,meteohub,2013-01-31 00:59:00,
2013-01-30 20:04:00,57.6,41.7,29.56,NW,317,4.0,9.0,94,0.00,,,0.00,meteohub,2013-01-31 01:04:00,
2013-01-30 20:09:00,57.6,42.6,29.56,ENE,63,1.0,9.0,94,0.00,,,0.00,meteohub,2013-01-31 01:09:00,
2013-01-30 20:14:00,57.4,41.7,29.55,NE,55,2.0,6.0,94,0.00,,,0.00,meteohub,2013-01-31 01:14:00,
2013-01-30 20:19:00,57.4,42.8,29.55,SSE,167,2.0,6.0,95,0.00,,,0.00,meteohub,2013-01-31 01:19:00,
2013-01-30 20:24:00,57.4,43.0,29.55,ESE,107,1.0,6.0,95,0.00,,,0.00,meteohub,2013-01-31 01:24:00,
2013-01-30 20:29:00,57.4,43.0,29.54,SSW,206,0.0,5.0,95,0.00,,,0.00,meteohub,2013-01-31 01:29:00,
2013-01-30 20:34:00,57.4,43.0,29.54,ENE,72,0.0,6.0,95,0.00,,,0.00,meteohub,2013-01-31 01:34:00,
2013-01-30 20:39:00,57.4,43.0,29.54,SE,134,1.0,6.0,95,0.00,,,0.00,meteohub,2013-01-31 01:39:00,
2013-01-30 20:44:00,57.4,43.0,29.54,ESE,121,2.0,6.0,95,0.00,,,0.00,meteohub,2013-01-31 01:44:00,
2013-01-30 20:50:00,57.4,42.1,29.53,ESE,122,1.0,6.0,95,0.00,,,0.00,meteohub,2013-01-31 01:50:00,
2013-01-30 20:55:00,57.4,42.1,29.53,SSE,168,1.0,7.0,95,0.00,,,0.00,meteohub,2013-01-31 01:55:00,
2013-01-30 21:00:00,57.4,43.0,29.54,West,280,2.0,7.0,95,0.00,,,0.00,meteohub,2013-01-31 02:00:00,
2013-01-30 21:05:00,57.4,43.0,29.53,ESE,123,0.0,9.0,95,0.00,,,0.00,meteohub,2013-01-31 02:05:00,
2013-01-30 21:10:00,57.4,43.0,29.52,NNW,345,0.0,9.0,95,0.00,,,0.00,meteohub,2013-01-31 02:10:00,
2013-01-30 21:15:00,57.4,43.0,29.52,East,96,4.0,6.0,95,0.00,,,0.00,meteohub,2013-01-31 02:15:00,
2013-01-30 21:20:00,57.6,43.0,29.52,SE,129,2.0,6.0,95,0.00,,,0.00,meteohub,2013-01-31 02:20:00,
2013-01-30 21:25:00,57.6,43.0,29.52,NNE,32,0.0,9.0,94,0.00,,,0.00,meteohub,2013-01-31 02:25:00,
2013-01-30 21:30:00,57.4,42.8,29.52,NNW,329,1.0,11.0,94,0.00,,,0.00,meteohub,2013-01-31 02:30:00,
2013-01-30 21:35:00,57.4,42.8,29.52,ENE,67,0.0,11.0,94,0.00,,,0.00,meteohub,2013-01-31 02:35:00,
2013-01-30 21:40:00,57.2,42.8,29.52,SSE,163,2.0,7.0,94,0.00,,,0.00,meteohub,2013-01-31 02:40:00,
2013-01-30 21:45:00,57.4,41.9,29.52,ENE,65,1.0,7.0,94,0.00,,,0.00,meteohub,2013-01-31 02:45:00,
2013-01-30 21:50:00,57.2,41.7,29.52,East,83,0.0,5.0,94,0.00,,,0.00,meteohub,2013-01-31 02:50:00,
2013-01-30 21:55:00,57.0,41.7,29.52,WNW,287,1.0,5.0,94,0.00,,,0.00,meteohub,2013-01-31 02:55:00,
2013-01-30 22:00:00,57.0,41.7,29.51,NW,321,0.0,4.0,94,0.00,,,0.00,meteohub,2013-01-31 03:00:00,
2013-01-30 22:05:00,56.8,41.5,29.51,SSW,202,0.0,7.0,95,0.00,,,0.00,meteohub,2013-01-31 03:05:00,
2013-01-30 22:10:00,56.8,41.5,29.51,ENE,59,0.0,8.0,95,0.00,,,0.00,meteohub,2013-01-31 03:10:00,
2013-01-30 22:15:00,56.8,41.5,29.51,WSW,251,1.0,8.0,95,0.00,,,0.00,meteohub,2013-01-31 03:15:00,
2013-01-30 22:20:00,56.7,41.5,29.51,SE,126,0.0,8.0,95,0.00,,,0.00,meteohub,2013-01-31 03:20:00,
2013-01-30 22:25:00,56.7,41.5,29.51,NW,319,2.0,5.0,95,0.00,,,0.00,meteohub,2013-01-31 03:25:00,
2013-01-30 22:30:00,56.7,41.4,29.50,NNE,30,0.0,5.0,95,0.00,,,0.00,meteohub,2013-01-31 03:30:00,
2013-01-30 22:35:00,56.7,41.4,29.50,SE,133,1.0,6.0,96,0.00,,,0.00,meteohub,2013-01-31 03:35:00,
2013-01-30 22:40:00,56.5,42.3,29.49,NE,46,1.0,6.0,96,0.00,,,0.00,meteohub,2013-01-31 03:40:00,
2013-01-30 22:45:00,56.3,42.3,29.49,ENE,70,3.0,6.0,95,0.00,,,0.00,meteohub,2013-01-31 03:45:00,
2013-01-30 22:50:00,56.5,42.3,29.49,SE,124,1.0,5.0,96,0.00,,,0.00,meteohub,2013-01-31 03:50:00,
2013-01-30 22:55:00,56.5,42.3,29.48,East,98,0.0,5.0,96,0.00,,,0.00,meteohub,2013-01-31 03:55:00,
2013-01-30 23:00:00,56.5,42.3,29.48,ENE,69,1.0,5.0,96,0.00,,,0.00,meteohub,2013-01-31 04:00:00,
2013-01-30 23:05:00,56.5,42.3,29.47,NNE,33,2.0,9.0,96,0.00,,,0.00,meteohub,2013-01-31 04:05:00,
2013-01-30 23:10:00,56.7,42.3,29.47,NNW,346,4.0,9.0,96,0.00,,,0.00,meteohub,2013-01-31 04:10:00,
2013-01-30 23:15:00,56.7,42.3,29.46,East,80,3.0,9.0,96,0.00,,,0.00,meteohub,2013-01-31 04:15:00,
2013-01-30 23:21:00,56.7,42.1,29.46,South,182,2.0,9.0,96,0.00,,,0.00,meteohub,2013-01-31 04:21:00,
2013-01-30 23:26:00,56.7,42.1,29.46,NNE,29,1.0,8.0,96,0.00,,,0.00,meteohub,2013-01-31 04:26:00,
2013-01-30 23:31:00,56.7,42.1,29.46,East,83,2.0,8.0,96,0.00,,,0.00,meteohub,2013-01-31 04:31:00,
2013-01-30 23:36:00,56.8,42.1,29.46,SE,128,1.0,8.0,96,0.00,,,0.00,meteohub,2013-01-31 04:36:00,
2013-01-30 23:41:00,56.8,42.1,29.45,SE,130,0.0,7.0,96,0.00,,,0.00,meteohub,2013-01-31 04:41:00,
2013-01-30 23:46:00,56.8,41.9,29.45,NE,41,1.0,7.0,96,0.00,,,0.00,meteohub,2013-01-31 04:46:00,
2013-01-30 23:51:00,56.8,41.9,29.43,East,85,1.0,10.0,96,0.00,,,0.00,meteohub,2013-01-31 04:51:00,
2013-01-30 23:56:00,57.0,41.9,29.43,NW,310,4.0,10.0,96,0.00,,,0.00,meteohub,2013-01-31 04:56:00,